TimeEST,TemperatureF,Dew PointF,Humidity,Sea Level PressureIn,VisibilityMPH,Wind Direction,Wind SpeedMPH,Gust SpeedMPH,PrecipitationIn,Events,Conditions,WindDirDegrees,DateUTC
12:15 AM,37.4,35.6,93,30.17,10.0,ENE,9.2,-,N/A,,Overcast,60,2012-11-10 05:15:00
12:35 AM,37.4,35.6,93,30.18,10.0,ENE,10.4,-,N/A,,Overcast,70,2012-11-10 05:35:00
12:55 AM,37.4,35.6,93,30.18,10.0,ENE,9.2,-,N/A,,Overcast,70,2012-11-10 05:55:00
1:35 AM,35.6,33.8,93,30.18,10.0,ENE,10.4,-,N/A,,Overcast,60,2012-11-10 06:35:00
1:55 AM,35.6,33.8,93,30.19,10.0,ENE,9.2,-,N/A,,Overcast,70,2012-11-10 06:55:00
2:15 AM,35.6,33.8,93,30.19,10.0,ENE,9.2,-,N/A,,Overcast,70,2012-11-10 07:15:00
2:35 AM,35.6,33.8,93,30.19,10.0,ENE,11.5,-,N/A,,Overcast,70,2012-11-10 07:35:00
2:55 AM,35.6,32.0,87,30.19,10.0,ENE,10.4,-,N/A,,Overcast,70,2012-11-10 07:55:00
3:15 AM,35.6,30.2,81,30.19,10.0,ENE,12.7,-,N/A,,Overcast,70,2012-11-10 08:15:00
3:35 AM,35.6,30.2,81,30.20,10.0,ENE,10.4,-,N/A,,Overcast,60,2012-11-10 08:35:00
3:55 AM,33.8,30.2,87,30.20,10.0,ENE,13.8,-,N/A,,Overcast,70,2012-11-10 08:55:00
4:15 AM,33.8,30.2,87,30.20,10.0,East,10.4,-,N/A,,Overcast,80,2012-11-10 09:15:00
4:35 AM,33.8,30.2,87,30.20,10.0,ENE,11.5,-,N/A,,Overcast,70,2012-11-10 09:35:00
4:55 AM,33.8,30.2,87,30.21,10.0,East,11.5,17.3,N/A,,Overcast,80,2012-11-10 09:55:00
5:15 AM,33.8,30.2,87,30.20,10.0,East,12.7,17.3,N/A,,Overcast,80,2012-11-10 10:15:00
5:55 AM,33.8,30.2,87,30.19,10.0,East,11.5,-,N/A,,Overcast,90,2012-11-10 10:55:00
6:15 AM,33.8,30.2,87,30.19,10.0,East,12.7,-,N/A,,Overcast,80,2012-11-10 11:15:00
6:35 AM,33.8,30.2,87,30.19,10.0,East,12.7,17.3,N/A,,Overcast,80,2012-11-10 11:35:00
6:55 AM,33.8,30.2,87,30.18,10.0,East,15.0,-,N/A,,Overcast,80,2012-11-10 11:55:00
7:15 AM,33.8,30.2,87,30.19,10.0,East,13.8,18.4,N/A,,Overcast,90,2012-11-10 12:15:00
7:35 AM,33.8,30.2,87,30.19,10.0,East,12.7,-,N/A,,Overcast,90,2012-11-10 12:35:00
7:55 AM,33.8,30.2,87,30.18,10.0,East,16.1,19.6,N/A,,Overcast,90,2012-11-10 12:55:00
8:15 AM,33.8,30.2,87,30.19,10.0,East,12.7,-,N/A,,Overcast,90,2012-11-10 13:15:00
8:35 AM,33.8,30.2,87,30.20,10.0,East,11.5,16.1,N/A,,Overcast,90,2012-11-10 13:35:00
8:55 AM,33.8,30.2,87,30.19,10.0,East,12.7,18.4,N/A,,Overcast,90,2012-11-10 13:55:00
9:15 AM,33.8,30.2,87,30.18,10.0,East,15.0,-,N/A,,Overcast,90,2012-11-10 14:15:00
9:35 AM,33.8,30.2,87,30.17,10.0,East,15.0,-,N/A,,Overcast,90,2012-11-10 14:35:00
9:55 AM,35.6,30.2,81,30.17,10.0,East,15.0,21.9,N/A,,Overcast,90,2012-11-10 14:55:00
10:15 AM,35.6,30.2,81,30.17,10.0,East,18.4,27.6,N/A,,Overcast,90,2012-11-10 15:15:00
10:35 AM,35.6,32.0,87,30.19,10.0,East,15.0,25.3,N/A,,Overcast,100,2012-11-10 15:35:00
10:55 AM,35.6,32.0,87,30.18,10.0,East,17.3,23.0,N/A,,Overcast,100,2012-11-10 15:55:00
11:15 AM,35.6,33.8,93,30.17,10.0,East,18.4,25.3,N/A,,Overcast,100,2012-11-10 16:15:00
11:35 AM,35.6,33.8,93,30.17,10.0,East,16.1,28.8,N/A,,Overcast,100,2012-11-10 16:35:00
11:55 AM,35.6,33.8,93,30.15,10.0,East,16.1,29.9,N/A,,Overcast,100,2012-11-10 16:55:00
12:15 PM,35.6,33.8,93,30.15,10.0,East,17.3,24.2,N/A,,Overcast,100,2012-11-10 17:15:00
12:35 PM,35.6,35.6,100,30.13,10.0,East,16.1,24.2,N/A,,Overcast,90,2012-11-10 17:35:00
12:55 PM,35.6,35.6,100,30.12,7.0,East,17.3,23.0,N/A,,Overcast,80,2012-11-10 17:55:00
1:15 PM,35.6,35.6,100,30.11,9.0,East,17.3,23.0,N/A,,Overcast,90,2012-11-10 18:15:00
1:35 PM,35.6,33.8,93,30.10,8.0,East,16.1,20.7,N/A,,Overcast,90,2012-11-10 18:35:00
1:55 PM,35.6,33.8,93,30.09,5.0,East,15.0,21.9,N/A,,Overcast,90,2012-11-10 18:55:00
2:15 PM,35.6,33.8,93,30.06,5.0,East,19.6,24.2,N/A,,Overcast,100,2012-11-10 19:15:00
2:35 PM,35.6,33.8,93,30.05,9.0,East,20.7,26.5,N/A,,Overcast,90,2012-11-10 19:35:00
2:55 PM,35.6,35.6,100,30.06,10.0,East,16.1,21.9,N/A,,Overcast,90,2012-11-10 19:55:00
3:15 PM,35.6,35.6,100,30.06,8.0,ESE,19.6,28.8,N/A,,Overcast,110,2012-11-10 20:15:00
3:35 PM,35.6,35.6,100,30.02,9.0,East,18.4,25.3,N/A,,Overcast,100,2012-11-10 20:35:00
3:55 PM,35.6,33.8,93,30.03,6.0,ESE,18.4,27.6,N/A,,Overcast,110,2012-11-10 20:55:00
4:15 PM,35.6,35.6,100,30.02,10.0,East,21.9,27.6,N/A,,Overcast,100,2012-11-10 21:15:00
4:35 PM,35.6,35.6,100,30.02,10.0,ESE,19.6,29.9,N/A,,Overcast,110,2012-11-10 21:35:00
4:55 PM,37.4,37.4,100,30.01,9.0,East,18.4,21.9,N/A,,Overcast,100,2012-11-10 21:55:00
5:15 PM,37.4,37.4,100,30.00,7.0,East,16.1,26.5,N/A,,Overcast,100,2012-11-10 22:15:00
5:35 PM,37.4,35.6,93,29.98,10.0,East,19.6,26.5,N/A,,Overcast,100,2012-11-10 22:35:00
5:55 PM,37.4,37.4,100,29.98,10.0,East,24.2,28.8,N/A,,Overcast,100,2012-11-10 22:55:00
6:15 PM,39.2,39.2,100,29.98,7.0,East,19.6,26.5,N/A,,Overcast,100,2012-11-10 23:15:00
6:35 PM,39.2,37.4,93,29.96,8.0,East,23.0,31.1,N/A,,Overcast,100,2012-11-10 23:35:00
6:55 PM,39.2,39.2,100,29.96,9.0,ESE,25.3,29.9,N/A,,Overcast,120,2012-11-10 23:55:00
7:15 PM,39.2,39.2,100,29.95,8.0,ESE,25.3,32.2,N/A,,Overcast,110,2012-11-11 00:15:00
7:35 PM,41.0,41.0,100,29.95,10.0,ESE,17.3,28.8,N/A,,Overcast,120,2012-11-11 00:35:00
7:55 PM,41.0,41.0,100,29.95,10.0,ESE,20.7,28.8,N/A,,Overcast,120,2012-11-11 00:55:00
8:15 PM,41.0,39.2,93,29.94,7.0,ESE,20.7,29.9,N/A,,Overcast,110,2012-11-11 01:15:00
8:35 PM,42.8,42.8,100,29.94,5.0,ESE,17.3,26.5,N/A,,Overcast,120,2012-11-11 01:35:00
8:55 PM,42.8,41.0,93,29.94,4.0,ESE,18.4,27.6,N/A,,Overcast,120,2012-11-11 01:55:00
9:55 PM,42.8,42.8,100,29.93,1.2,ESE,11.5,-,N/A,,Overcast,120,2012-11-11 02:55:00
10:15 PM,44.6,44.6,100,29.92,1.2,ESE,13.8,-,N/A,,Overcast,110,2012-11-11 03:15:00
10:35 PM,44.6,44.6,100,29.90,1.5,ESE,16.1,-,N/A,,Overcast,110,2012-11-11 03:35:00
10:55 PM,46.4,44.6,93,29.91,1.5,SE,12.7,17.3,N/A,,Overcast,130,2012-11-11 03:55:00
11:15 PM,46.4,44.6,93,29.90,1.5,ESE,12.7,19.6,N/A,,Overcast,120,2012-11-11 04:15:00
11:35 PM,46.4,46.4,100,29.91,1.8,East,8.1,-,N/A,,Overcast,100,2012-11-11 04:35:00
11:55 PM,46.4,44.6,93,29.90,1.8,East,11.5,-,N/A,,Overcast,100,2012-11-11 04:55:00